Time,TemperatureF,DewpointF,PressureIn,WindDirection,WindDirectionDegrees,WindSpeedMPH,WindSpeedGustMPH,Humidity,HourlyPrecipIn,Conditions,Clouds,dailyrainin,SoftwareType,DateUTC
2013-07-06 00:02:00,78.0,59.0,29.85,SSE,157,8.0,14.0,52,0.00,,,0.00,,2013-07-06 05:02:00,
2013-07-06 00:12:00,78.0,59.0,29.85,SSE,159,11.0,15.0,53,0.00,,,0.00,,2013-07-06 05:12:00,
2013-07-06 00:22:00,78.0,60.0,29.86,South,180,8.0,17.0,54,0.00,,,0.00,,2013-07-06 05:22:00,
2013-07-06 00:33:00,78.0,60.0,29.86,South,180,8.0,17.0,54,0.00,,,0.00,,2013-07-06 05:33:00,
2013-07-06 00:42:00,78.0,59.0,29.85,SE,140,9.0,17.0,53,0.00,,,0.00,,2013-07-06 05:42:00,
2013-07-06 00:53:00,78.0,59.0,29.85,South,181,11.0,17.0,53,0.00,,,0.00,,2013-07-06 05:53:00,
2013-07-06 01:02:00,78.0,59.0,29.85,South,181,11.0,17.0,53,0.00,,,0.00,,2013-07-06 06:02:00,
2013-07-06 01:12:00,78.0,59.0,29.86,South,171,8.0,16.0,53,0.00,,,0.00,,2013-07-06 06:12:00,
2013-07-06 01:22:00,77.0,59.0,29.86,South,169,11.0,17.0,54,0.00,,,0.00,,2013-07-06 06:22:00,
2013-07-06 01:34:00,77.0,59.0,29.86,South,169,11.0,17.0,54,0.00,,,0.00,,2013-07-06 06:34:00,
2013-07-06 01:43:00,77.0,60.0,29.86,SSE,150,10.0,16.0,55,0.00,,,0.00,,2013-07-06 06:43:00,
2013-07-06 01:53:00,77.0,60.0,29.85,SE,146,9.0,16.0,55,0.00,,,0.00,,2013-07-06 06:53:00,
2013-07-06 02:02:00,77.0,60.0,29.85,SE,146,9.0,16.0,55,0.00,,,0.00,,2013-07-06 07:02:00,
2013-07-06 02:12:00,77.0,60.0,29.85,SE,146,9.0,16.0,55,0.00,,,0.00,,2013-07-06 07:12:00,
2013-07-06 02:22:00,77.0,60.0,29.85,SE,146,9.0,16.0,55,0.00,,,0.00,,2013-07-06 07:22:00,
2013-07-06 02:33:00,77.0,60.0,29.85,SE,146,9.0,16.0,55,0.00,,,0.00,,2013-07-06 07:33:00,
2013-07-06 04:22:00,77.0,62.0,29.87,SSE,165,6.0,17.0,60,0.00,,,0.00,,2013-07-06 09:22:00,
2013-07-06 04:34:00,77.0,62.0,29.87,SSE,165,6.0,17.0,60,0.00,,,0.00,,2013-07-06 09:34:00,
2013-07-06 04:43:00,77.0,63.0,29.87,SW,217,9.0,16.0,61,0.00,,,0.00,,2013-07-06 09:43:00,
2013-07-06 04:53:00,77.0,63.0,29.86,SSE,158,7.0,13.0,62,0.00,,,0.00,,2013-07-06 09:53:00,
2013-07-06 05:02:00,77.0,63.0,29.86,SSE,158,7.0,13.0,62,0.00,,,0.00,,2013-07-06 10:02:00,
2013-07-06 05:11:00,76.0,62.0,29.86,South,177,10.0,18.0,63,0.00,,,0.00,,2013-07-06 10:11:00,
2013-07-06 05:22:00,74.0,63.0,29.86,SSE,164,6.0,12.0,69,0.00,,,0.00,,2013-07-06 10:22:00,
2013-07-06 05:33:00,74.0,63.0,29.86,SSE,164,6.0,12.0,69,0.00,,,0.00,,2013-07-06 10:33:00,
2013-07-06 05:42:00,74.0,63.0,29.87,SE,144,5.0,13.0,68,0.00,,,0.00,,2013-07-06 10:42:00,
2013-07-06 05:53:00,75.0,63.0,29.87,SSE,150,7.0,12.0,66,0.00,,,0.00,,2013-07-06 10:53:00,
2013-07-06 06:01:00,75.0,63.0,29.87,SSE,150,7.0,12.0,66,0.00,,,0.00,,2013-07-06 11:01:00,
2013-07-06 06:11:00,75.0,62.0,29.87,SE,140,5.0,11.0,65,0.00,,,0.00,,2013-07-06 11:11:00,
2013-07-06 06:22:00,75.0,63.0,29.87,South,184,6.0,14.0,66,0.00,,,0.00,,2013-07-06 11:22:00,
2013-07-06 06:33:00,75.0,63.0,29.87,South,184,6.0,14.0,66,0.00,,,0.00,,2013-07-06 11:33:00,
2013-07-06 06:42:00,75.0,63.0,29.88,SSE,165,3.0,11.0,66,0.00,,,0.00,,2013-07-06 11:42:00,
2013-07-06 06:53:00,74.0,62.0,29.88,South,170,8.0,14.0,67,0.00,,,0.00,,2013-07-06 11:53:00,
2013-07-06 07:01:00,74.0,62.0,29.88,South,170,8.0,14.0,67,0.00,,,0.00,,2013-07-06 12:01:00,
2013-07-06 07:11:00,74.0,62.0,29.87,SSW,195,11.0,16.0,67,0.00,,,0.00,,2013-07-06 12:11:00,
2013-07-06 07:22:00,74.0,62.0,29.87,SSE,159,8.0,16.0,67,0.00,,,0.00,,2013-07-06 12:22:00,
2013-07-06 07:33:00,74.0,62.0,29.87,SSE,159,8.0,16.0,67,0.00,,,0.00,,2013-07-06 12:33:00,
2013-07-06 07:43:00,74.0,63.0,29.87,South,181,7.0,13.0,68,0.00,,,0.00,,2013-07-06 12:43:00,
2013-07-06 07:52:00,74.0,63.0,29.87,SSW,192,9.0,14.0,68,0.00,,,0.00,,2013-07-06 12:52:00,
2013-07-06 08:01:00,74.0,63.0,29.87,SSW,192,9.0,14.0,68,0.00,,,0.00,,2013-07-06 13:01:00,
2013-07-06 08:12:00,74.0,63.0,29.86,South,172,9.0,15.0,68,0.00,,,0.00,,2013-07-06 13:12:00,
2013-07-06 08:22:00,74.0,63.0,29.86,SSE,152,10.0,14.0,68,0.00,,,0.00,,2013-07-06 13:22:00,
2013-07-06 08:33:00,74.0,63.0,29.86,SSE,152,10.0,14.0,68,0.00,,,0.00,,2013-07-06 13:33:00,
2013-07-06 08:43:00,75.0,63.0,29.86,SE,142,6.0,17.0,67,0.00,,,0.00,,2013-07-06 13:43:00,
2013-07-06 08:52:00,75.0,63.0,29.86,South,173,7.0,17.0,66,0.00,,,0.00,,2013-07-06 13:52:00,
2013-07-06 09:02:00,75.0,63.0,29.86,South,173,7.0,17.0,66,0.00,,,0.00,,2013-07-06 14:02:00,
2013-07-06 09:11:00,74.0,63.0,29.86,SSE,160,7.0,15.0,68,0.00,,,0.00,,2013-07-06 14:11:00,
2013-07-06 09:22:00,74.0,63.0,29.86,SE,145,4.0,18.0,68,0.00,,,0.00,,2013-07-06 14:22:00,
2013-07-06 09:34:00,74.0,63.0,29.86,SE,145,4.0,18.0,68,0.00,,,0.00,,2013-07-06 14:34:00,
2013-07-06 09:42:00,75.0,63.0,29.85,South,182,8.0,21.0,67,0.00,,,0.00,,2013-07-06 14:42:00,
2013-07-06 09:53:00,75.0,63.0,29.85,South,169,6.0,13.0,67,0.00,,,0.00,,2013-07-06 14:53:00,
2013-07-06 10:02:00,75.0,63.0,29.85,South,169,6.0,13.0,67,0.00,,,0.00,,2013-07-06 15:02:00,
2013-07-06 10:12:00,75.0,63.0,29.85,SSE,159,6.0,14.0,67,0.00,,,0.00,,2013-07-06 15:12:00,
2013-07-06 10:22:00,75.0,63.0,29.86,South,173,3.0,11.0,66,0.00,,,0.00,,2013-07-06 15:22:00,
2013-07-06 10:33:00,75.0,63.0,29.86,South,173,3.0,11.0,66,0.00,,,0.00,,2013-07-06 15:33:00,
2013-07-06 10:43:00,76.0,63.0,29.85,SSE,159,8.0,14.0,65,0.00,,,0.00,,2013-07-06 15:43:00,
2013-07-06 10:52:00,76.0,63.0,29.85,SSE,157,8.0,16.0,65,0.00,,,0.00,,2013-07-06 15:52:00,
2013-07-06 11:05:00,76.0,63.0,29.85,SSE,157,8.0,16.0,65,0.00,,,0.00,,2013-07-06 16:05:00,
2013-07-06 11:15:00,77.0,63.0,29.84,SSE,157,7.0,16.0,63,0.00,,,0.00,,2013-07-06 16:15:00,
2013-07-06 11:23:00,77.0,63.0,29.85,SSE,157,8.0,15.0,62,0.00,,,0.00,,2013-07-06 16:23:00,
2013-07-06 11:57:00,76.0,64.0,29.85,South,171,8.0,18.0,67,0.00,,,0.00,,2013-07-06 16:57:00,
2013-07-06 12:20:00,75.0,64.0,29.86,SSE,161,8.0,14.0,69,0.00,,,0.00,,2013-07-06 17:20:00,
2013-07-06 12:50:00,74.0,66.0,29.86,South,172,8.0,15.0,75,0.00,,,0.00,,2013-07-06 17:50:00,
2013-07-06 13:20:00,75.0,66.0,29.85,SSE,166,9.0,19.0,73,0.01,,,0.01,,2013-07-06 18:20:00,
2013-07-06 13:40:00,76.0,65.0,29.85,South,169,10.0,16.0,70,0.01,,,0.01,,2013-07-06 18:40:00,
2013-07-06 14:08:00,79.0,66.0,29.85,South,182,10.0,20.0,64,0.00,,,0.01,,2013-07-06 19:08:00,
2013-07-06 14:20:00,80.0,65.0,29.84,SSE,152,12.0,21.0,60,0.00,,,0.01,,2013-07-06 19:20:00,
2013-07-06 14:39:00,83.0,66.0,29.84,South,188,15.0,25.0,56,0.00,,,0.01,,2013-07-06 19:39:00,
2013-07-06 14:50:00,82.0,66.0,29.84,SE,140,12.0,20.0,58,0.00,,,0.01,,2013-07-06 19:50:00,
2013-07-06 15:08:00,83.0,65.0,29.83,SSE,165,12.0,22.0,54,0.00,,,0.01,,2013-07-06 20:08:00,
2013-07-06 15:19:00,83.0,64.0,29.84,SSE,163,12.0,25.0,53,0.00,,,0.01,,2013-07-06 20:19:00,
2013-07-06 15:27:00,84.0,64.0,29.83,South,177,14.0,24.0,52,0.00,,,0.01,,2013-07-06 20:27:00,
2013-07-06 15:41:00,84.0,64.0,29.83,South,177,14.0,24.0,52,0.00,,,0.01,,2013-07-06 20:41:00,
2013-07-06 15:51:00,85.0,65.0,29.83,South,190,12.0,22.0,51,0.00,,,0.01,,2013-07-06 20:51:00,
2013-07-06 15:57:00,86.0,65.0,29.83,South,186,12.0,25.0,50,0.00,,,0.01,,2013-07-06 20:57:00,
2013-07-06 16:17:00,85.0,64.0,29.83,SSE,165,15.0,24.0,49,0.00,,,0.01,,2013-07-06 21:17:00,
2013-07-06 16:28:00,86.0,65.0,29.83,SSE,160,12.0,27.0,49,0.00,,,0.01,,2013-07-06 21:28:00,
2013-07-06 16:40:00,86.0,65.0,29.83,SSE,160,12.0,27.0,49,0.00,,,0.01,,2013-07-06 21:40:00,
2013-07-06 16:51:00,86.0,65.0,29.83,South,171,16.0,21.0,50,0.00,,,0.01,,2013-07-06 21:51:00,
2013-07-06 16:58:00,86.0,65.0,29.83,South,181,14.0,23.0,49,0.00,,,0.01,,2013-07-06 21:58:00,
2013-07-06 17:09:00,86.0,65.0,29.83,South,181,14.0,23.0,49,0.00,,,0.01,,2013-07-06 22:09:00,
2013-07-06 17:20:00,85.0,64.0,29.82,SSE,159,12.0,25.0,50,0.00,,,0.01,,2013-07-06 22:20:00,
2013-07-06 17:27:00,86.0,65.0,29.82,SSE,167,12.0,19.0,50,0.00,,,0.01,,2013-07-06 22:27:00,
2013-07-06 17:50:00,86.0,66.0,29.82,South,173,10.0,16.0,51,0.00,,,0.01,,2013-07-06 22:50:00,
2013-07-06 17:57:00,87.0,65.0,29.82,SSE,159,10.0,16.0,49,0.00,,,0.01,,2013-07-06 22:57:00,
2013-07-06 18:09:00,87.0,65.0,29.82,SSE,159,10.0,16.0,49,0.00,,,0.01,,2013-07-06 23:09:00,
2013-07-06 18:19:00,88.0,66.0,29.81,South,180,20.0,26.0,48,0.00,,,0.01,,2013-07-06 23:19:00,
2013-07-06 18:28:00,89.0,67.0,29.81,South,182,15.0,24.0,48,0.00,,,0.01,,2013-07-06 23:28:00,
2013-07-06 18:41:00,89.0,67.0,29.81,South,182,15.0,24.0,48,0.00,,,0.01,,2013-07-06 23:41:00,
2013-07-06 18:50:00,88.0,66.0,29.80,South,188,16.0,25.0,49,0.00,,,0.01,,2013-07-06 23:50:00,
2013-07-06 18:58:00,87.0,67.0,29.80,SSW,195,20.0,28.0,51,0.00,,,0.01,,2013-07-06 23:58:00,
2013-07-06 19:06:00,86.0,67.0,29.80,SSW,194,14.0,26.0,54,0.00,,,0.01,,2013-07-07 00:06:00,
2013-07-06 19:10:00,87.0,67.0,29.80,SSW,195,20.0,28.0,51,0.00,,,0.01,,2013-07-07 00:10:00,
2013-07-06 19:50:00,86.0,67.0,29.80,SSW,194,14.0,26.0,54,0.00,,,0.01,,2013-07-07 00:50:00,
2013-07-06 19:53:00,85.0,66.0,29.80,SSW,195,21.0,33.0,54,0.00,,,0.01,,2013-07-07 00:53:00,
2013-07-06 19:56:00,86.0,67.0,29.80,SSW,194,14.0,26.0,54,0.00,,,0.01,,2013-07-07 00:56:00,
2013-07-06 20:30:00,85.0,66.0,29.80,SSW,195,21.0,33.0,54,0.00,,,0.01,,2013-07-07 01:30:00,
2013-07-06 20:49:00,85.0,66.0,29.80,SSW,195,21.0,33.0,54,0.00,,,0.01,,2013-07-07 01:49:00,
2013-07-06 23:01:00,81.0,65.0,29.81,SSE,161,15.0,22.0,59,0.00,,,0.01,,2013-07-07 04:01:00,
2013-07-06 23:11:00,81.0,65.0,29.81,SSE,161,15.0,22.0,59,0.00,,,0.01,,2013-07-07 04:11:00,
2013-07-06 23:21:00,81.0,65.0,29.81,SSE,161,15.0,22.0,59,0.00,,,0.01,,2013-07-07 04:21:00,
2013-07-06 23:31:00,81.0,65.0,29.81,SSE,161,15.0,22.0,59,0.00,,,0.01,,2013-07-07 04:31:00,